Regional Weather Roundup
Issued by NWS Portland, ME

Home | Current Version | Previous Version | Text Only | Print | Product List | Glossary On
Versions: 1 2 3 4 5 6 7 8 9 10 11 12 13 14 15 16 17 18 19 20 21 22 23 24 25 26 27 28 29 30 31 32 33 34 35 36 37 38 39 40 41 42 43 44 45 46 47 48 49 50
000
ASUS41 KGYX 172010
RWRGYX
WEATHER ROUNDUP FOR MAINE AND NEW HAMPSHIRE
NATIONAL WEATHER SERVICE GRAY ME
300 PM EST WED DEC 17 2014

MEZ002-005-006-010-012-015-018-020-021-024-026-027-029-172100-
MAINE

CITY           SKY/WX    TMP DP  RH WIND       PRES   REMARKS
PORTLAND       LGT RAIN  42  39  89 NW10G22   29.65R FOG
SANFORD        CLOUDY    41  36  81 N9        29.67R
BAR HARBOR     CLOUDY    39  39 100 NE13G21   29.68F
WISCASSET      LGT RAIN  43  41  93 VRB6      29.65F FOG
ROCKLAND       CLOUDY    43  43 100 NE18      29.63F
FRYEBURG       CLOUDY    40  38  93 N6        29.70S
LEWISTONAUBURN CLOUDY    37  36  93 N15G21    29.67S
AUGUSTA        MIX PCPN  36  35  96 N13       29.69S FOG
WATERVILLE     CLOUDY    37  34  87 N13       29.67F
BANGOR         LGT RAIN  38  36  92 NE10      29.71S FOG
GREENVILLE       N/A     33  32  96 NW3       29.71S
MILLINOCKET    LGT SNOW  34  33  96 NE3       29.80S FOG
HOULTON        LGT SNOW  33  31  92 VRB7      29.81S FOG
PRESQUE ISLE   CLOUDY    34  30  86 E5        29.83S
FRENCHVILLE    LGT SNOW  28  27  96 E5        29.83S FOG
CARIBOU        SNOW      32  31  96 NE5       29.83S VSB 1/2
$$

NHZ002-005-008-009-011-012-014-172100-
NEW HAMPSHIRE

CITY           SKY/WX    TMP DP  RH WIND       PRES   REMARKS
PORTSMOUTH     CLOUDY    44  40  86 NW12      29.66S
ROCHESTER      CLOUDY    43  40  89 NW9G18    29.68R
NASHUA         MOCLDY    46  42  86 NW7       29.71S
MANCHESTER     MOCLDY    45  40  82 NW5       29.69S
CONCORD        CLOUDY    42  40  92 NW7       29.71R
LACONIA        CLOUDY    41  37  87 W6        29.68S
PLYMOUTH       DRIZZLE   38  38 100 W6        29.71R
BERLIN         MIX PCPN  35  33  92 CALM      29.71S FOG
WHITEFIELD     LGT RAIN  36  34  92 NW3       29.71R
JAFFREY        CLOUDY    41  37  86 VRB6      29.71S
KEENE          CLOUDY    41  39  93 CALM      29.73S
LEBANON        CLOUDY    36  34  92 CALM      29.73R FOG
MT WASHINGTON  SNOW      27  27 100 NW17        N/A  VSB 1/16WCI  14
$$

VTZ005-007-008-172100-
VERMONT

CITY           SKY/WX    TMP DP  RH WIND       PRES   REMARKS
ST JOHNSBURY     N/A     36  36 100 MISG      29.71S
MONTPELIER     FOG       34  33  96 CALM      29.76R VSB 1
BURLINGTON     FOG       38  36  92 CALM      29.74S VSB 1
$$

MAZ007-012-024-CTZ003-RIZ002-NYZ038-NYZ072-172100-
SOUTHERN NEW ENGLAND AND NY

CITY           SKY/WX    TMP DP  RH WIND       PRES   REMARKS
BOSTON         MOCLDY    46  43  87 NW9       29.69S
WORCESTER      PTSUNNY   43  39  86 NW16      29.70F
NANTUCKET      CLOUDY    46  42  86 W17G25    29.69R
PROVIDENCE     PTSUNNY   50  39  66 NW16G25   29.72R
HARTFORD       CLOUDY    49  38  65 NW14      29.75R
ALBANY         CLOUDY    41  37  86 W6        29.80R
NEW YORK CITY  CLOUDY    51  36  56 W14       29.81R
$$

ANZ081-ANZ082-ANZ150-NHZ014-MEZ023>029-172100-
COASTAL MARINE OBSERVATIONS

STATION/POSITION TIME  TEMP    WIND        PRES    WAVE
                       AIR SEA DIR/SP/G            HT/PER
                 (UTC) (F)     (DEG/KT/KT) (MB)    (FT/S)
MOUNT DESERT ROC 2000   45                 1002.7F
MATINICUS ROCK   1900          100/ 30/ 33 1002.0F
PORTLAND WX BUOY 1950   41 45  350/ 21/ 27 1002.5R   6/ 7
WELLS            1900   42 39  350/ 13/ 18 1002.9F
ISLE OF SHOALS   1900   43     310/ 21/ 23 1003.2F
JEFFREYS LEDGE   1921      49                N/A     5/ 5
CASHES LEDGE BUO 1950   49 49  210/  6/  8 1000.6F   8/ 8
$$

.............KEY..............
   WCI - WIND CHILL
   TC  - TEMPERATURE IN CELSIUS
   VSB - VISIBILITY IN MILES
   HX  - HEAT INDEX
   FAIR- INDICATES FEW OR NO CLOUDS BELOW 12,000 FT, WITH NO
         SIGNIFICANT WEATHER AND/OR OBSTRUCTIONS TO VISIBILITY.




USA.gov is the U.S. government's official web portal to all federal, state and local government web resources and services.